| time (UTC) | temp F | wind direction | speed MPH | gust MPH | rain 1hr in | rain 24hr in | rain mn in | humidity % | barometer mb |
| 20260506150205 | 88 | 150 | 6.0 | 9.0 | 0.00 | 0.00 | 0.00 | 66 | 1016.2 |
| 20260506144704 | 87 | 106 | 5.0 | 8.0 | 0.00 | 0.00 | 0.00 | 69 | 1017.2 |
| 20260506144203 | 87 | 118 | 5.0 | 8.0 | 0.00 | 0.00 | 0.00 | 72 | 1017.2 |
| 20260506143705 | 87 | 102 | 5.0 | 7.0 | 0.00 | 0.00 | 0.00 | 72 | 1017.2 |
| 20260506143204 | 87 | 119 | 4.0 | 9.0 | 0.00 | 0.00 | 0.00 | 74 | 1017.2 |
| 20260506141703 | 85 | 116 | 5.0 | 8.0 | 0.00 | 0.00 | 0.00 | 77 | 1017.2 |
| 20260506140704 | 85 | 110 | 4.0 | 8.0 | 0.00 | 0.00 | 0.00 | 78 | 1017.2 |
| 20260506140204 | 84 | 105 | 5.0 | 8.0 | 0.00 | 0.00 | 0.00 | 82 | 1017.2 |
| 20260506134704 | 84 | 150 | 4.0 | 6.0 | 0.00 | 0.00 | 0.00 | 84 | 1017.2 |
| 20260506133704 | 83 | 144 | 3.0 | 6.0 | 0.00 | 0.00 | 0.00 | 85 | 1016.2 |
| 20260506133204 | 83 | 102 | 4.0 | 7.0 | 0.00 | 0.00 | 0.00 | 84 | 1016.2 |
| 20260506131704 | 84 | 105 | 3.0 | 7.0 | 0.00 | 0.00 | 0.00 | 79 | 1016.2 |
| 20260506131205 | 83 | 120 | 5.0 | 8.0 | 0.00 | 0.00 | 0.00 | 83 | 1016.2 |
| 20260506130704 | 81 | 121 | 4.0 | 6.0 | 0.00 | 0.00 | 0.00 | 87 | 1016.2 |
| 20260506124703 | 82 | 89 | 3.0 | 6.0 | 0.00 | 0.00 | 0.00 | 89 | 1016.2 |
| 20260506124203 | 81 | 116 | 3.0 | 6.0 | 0.00 | 0.00 | 0.00 | 98 | 1016.2 |
| 20260506123205 | 78 | 127 | 3.0 | 5.0 | 0.00 | 0.00 | 0.00 | 100 | 1016.2 |
| 20260506121704 | 76 | 148 | 0.0 | 0.0 | 0.00 | 0.00 | 0.00 | 100 | 1016.2 |
| 20260506121204 | 75 | 148 | 0.0 | 0.0 | 0.00 | 0.00 | 0.00 | 100 | 1016.2 |
| 20260506120204 | 74 | 148 | 0.0 | 0.0 | 0.00 | 0.00 | 0.00 | 100 | 1016.2 |
| 20260506114704 | 72 | 148 | 0.0 | 0.0 | 0.00 | 0.00 | 0.00 | 100 | 1016.2 |
| 20260506114203 | 72 | 148 | 0.0 | 0.0 | 0.00 | 0.00 | 0.00 | 100 | 1016.2 |
| 20260506113705 | 72 | 148 | 0.0 | 0.0 | 0.00 | 0.00 | 0.00 | 100 | 1016.2 |
| 20260506111705 | 71 | 148 | 0.0 | 0.0 | 0.00 | 0.00 | 0.00 | 100 | 1016.2 |
| 20260506111204 | 71 | 148 | 0.0 | 0.0 | 0.00 | 0.00 | 0.00 | 100 | 1016.2 |
| 20260506110703 | 71 | 149 | 0.0 | 0.0 | 0.00 | 0.00 | 0.00 | 100 | 1016.2 |
| 20260506110204 | 70 | 148 | 0.0 | 0.0 | 0.00 | 0.00 | 0.00 | 100 | 1016.2 |
| 20260506104704 | 69 | 148 | 0.0 | 0.0 | 0.00 | 0.00 | 0.00 | 100 | 1015.2 |
| 20260506104203 | 69 | 148 | 0.0 | 0.0 | 0.00 | 0.00 | 0.00 | 100 | 1015.2 |
| 20260506103704 | 69 | 148 | 0.0 | 0.0 | 0.00 | 0.00 | 0.00 | 100 | 1015.2 |
| 20260506103204 | 69 | 148 | 0.0 | 0.0 | 0.00 | 0.00 | 0.00 | 100 | 1015.2 |
| 20260506101704 | 69 | 148 | 0.0 | 0.0 | 0.00 | 0.00 | 0.00 | 100 | 1015.2 |
| 20260506101204 | 69 | 148 | 0.0 | 0.0 | 0.00 | 0.00 | 0.00 | 100 | 1015.2 |
| 20260506100705 | 69 | 148 | 0.0 | 0.0 | 0.00 | 0.00 | 0.00 | 100 | 1015.2 |
| 20260506094704 | 69 | 148 | 0.0 | 0.0 | 0.00 | 0.00 | 0.00 | 100 | 1015.2 |
| 20260506093704 | 69 | 148 | 0.0 | 0.0 | 0.00 | 0.00 | 0.00 | 100 | 1015.2 |
| 20260506093204 | 69 | 148 | 0.0 | 0.0 | 0.00 | 0.00 | 0.00 | 100 | 1015.2 |
| 20260506091704 | 69 | 148 | 0.0 | 0.0 | 0.00 | 0.00 | 0.00 | 100 | 1015.2 |
| 20260506091204 | 70 | 148 | 0.0 | 0.0 | 0.00 | 0.00 | 0.00 | 100 | 1015.2 |
| 20260506090703 | 70 | 148 | 0.0 | 0.0 | 0.00 | 0.00 | 0.00 | 100 | 1015.2 |
| 20260506084704 | 70 | 148 | 0.0 | 0.0 | 0.00 | 0.00 | 0.00 | 100 | 1015.2 |
| 20260506083705 | 70 | 148 | 0.0 | 0.0 | 0.00 | 0.00 | 0.00 | 100 | 1015.2 |
| 20260506083203 | 70 | 148 | 0.0 | 0.0 | 0.00 | 0.00 | 0.00 | 100 | 1015.2 |
| 20260506081703 | 71 | 148 | 0.0 | 0.0 | 0.00 | 0.00 | 0.00 | 100 | 1015.2 |
| 20260506081204 | 71 | 148 | 0.0 | 0.0 | 0.00 | 0.00 | 0.00 | 100 | 1015.2 |
| 20260506080204 | 71 | 148 | 0.0 | 0.0 | 0.00 | 0.00 | 0.00 | 100 | 1015.2 |
| 20260506071704 | 72 | 148 | 0.0 | 0.0 | 0.00 | 0.00 | 0.00 | 100 | 1015.2 |
| 20260506070703 | 72 | 148 | 0.0 | 0.0 | 0.00 | 0.00 | 0.00 | 100 | 1015.2 |
| 20260506070203 | 72 | 148 | 0.0 | 0.0 | 0.00 | 0.00 | 0.00 | 100 | 1015.2 |
| 20260506061704 | 73 | 140 | 0.0 | 3.0 | 0.00 | 0.00 | 0.00 | 100 | 1015.2 |
| 20260506061205 | 73 | 121 | 0.0 | 3.0 | 0.00 | 0.00 | 0.00 | 100 | 1015.2 |
| 20260506060206 | 74 | 115 | 0.0 | 2.0 | 0.00 | 0.00 | 0.00 | 100 | 1015.2 |
| 20260506051204 | 74 | 121 | 3.0 | 5.0 | 0.00 | 0.00 | 0.00 | 100 | 1015.5 |
| 20260506050704 | 74 | 119 | 3.0 | 6.0 | 0.00 | 0.00 | 0.00 | 99 | 1016.2 |
| 20260506050204 | 74 | 105 | 2.0 | 3.0 | 0.00 | 0.00 | 0.00 | 99 | 1016.2 |
| 20260506044704 | 75 | 110 | 3.0 | 3.0 | 0.00 | 0.00 | 0.00 | 98 | 1016.2 |
| 20260506044204 | 75 | 116 | 3.0 | 6.0 | 0.00 | 0.00 | 0.00 | 98 | 1016.2 |
| 20260506043703 | 75 | 101 | 3.0 | 5.0 | 0.00 | 0.00 | 0.00 | 98 | 1016.2 |
| 20260506043204 | 75 | 109 | 4.0 | 6.0 | 0.00 | 0.00 | 0.00 | 98 | 1016.2 |
| 20260506041704 | 75 | 95 | 3.0 | 6.0 | 0.00 | 0.00 | 0.00 | 97 | 1016.2 |
| 20260506040704 | 75 | 86 | 5.0 | 6.0 | 0.00 | 0.00 | 0.00 | 97 | 1016.2 |
| 20260506040203 | 75 | 104 | 3.0 | 6.0 | 0.00 | 0.00 | 0.00 | 97 | 1016.2 |
| 20260506034203 | 75 | 103 | 3.0 | 6.0 | 0.00 | 0.00 | 0.00 | 96 | 1016.2 |
| 20260506033704 | 75 | 97 | 4.0 | 6.0 | 0.00 | 0.00 | 0.00 | 97 | 1016.2 |
| 20260506033205 | 75 | 107 | 3.0 | 6.0 | 0.00 | 0.00 | 0.00 | 96 | 1016.2 |
| 20260506031704 | 75 | 108 | 3.0 | 5.0 | 0.00 | 0.00 | 0.00 | 96 | 1016.2 |
| 20260506031204 | 75 | 106 | 5.0 | 6.0 | 0.00 | 0.00 | 0.00 | 95 | 1016.2 |
| 20260506030205 | 75 | 104 | 4.0 | 6.0 | 0.00 | 0.00 | 0.00 | 94 | 1016.2 |
| 20260506024704 | 75 | 103 | 5.0 | 8.0 | 0.00 | 0.00 | 0.00 | 94 | 1016.2 |
| 20260506024205 | 75 | 94 | 5.0 | 7.0 | 0.00 | 0.00 | 0.00 | 94 | 1016.2 |
| 20260506023705 | 76 | 94 | 4.0 | 6.0 | 0.00 | 0.00 | 0.00 | 94 | 1016.2 |
| 20260506023203 | 76 | 94 | 6.0 | 8.0 | 0.00 | 0.00 | 0.00 | 94 | 1016.2 |
| 20260506021704 | 76 | 94 | 5.0 | 8.0 | 0.00 | 0.00 | 0.00 | 94 | 1016.2 |
| 20260506021204 | 76 | 90 | 4.0 | 6.0 | 0.00 | 0.00 | 0.00 | 94 | 1015.7 |
| 20260506020204 | 76 | 94 | 6.0 | 8.0 | 0.00 | 0.00 | 0.00 | 94 | 1015.2 |
| 20260506014704 | 76 | 91 | 3.0 | 6.0 | 0.00 | 0.00 | 0.00 | 93 | 1015.2 |
| 20260506014203 | 76 | 101 | 5.0 | 8.0 | 0.00 | 0.00 | 0.00 | 93 | 1015.2 |
| 20260506013704 | 76 | 94 | 5.0 | 6.0 | 0.00 | 0.00 | 0.00 | 92 | 1015.2 |
| 20260506013204 | 76 | 72 | 3.0 | 9.0 | 0.00 | 0.00 | 0.00 | 93 | 1015.2 |
| 20260506011704 | 76 | 96 | 5.0 | 8.0 | 0.00 | 0.00 | 0.00 | 92 | 1015.2 |
| 20260506011203 | 76 | 91 | 6.0 | 9.0 | 0.00 | 0.00 | 0.00 | 92 | 1015.2 |
| 20260506010704 | 76 | 89 | 5.0 | 9.0 | 0.00 | 0.00 | 0.00 | 92 | 1015.2 |
| 20260506010204 | 76 | 85 | 6.0 | 8.0 | 0.00 | 0.00 | 0.00 | 92 | 1015.2 |
| 20260506004704 | 76 | 75 | 6.0 | 8.0 | 0.00 | 0.00 | 0.00 | 91 | 1015.2 |
| 20260506004204 | 76 | 86 | 6.0 | 8.0 | 0.00 | 0.00 | 0.00 | 92 | 1015.2 |
| 20260506003704 | 76 | 90 | 6.0 | 9.0 | 0.00 | 0.00 | 0.00 | 92 | 1015.2 |
| 20260506003204 | 76 | 85 | 6.0 | 10.0 | 0.00 | 0.00 | 0.00 | 91 | 1015.2 |
| 20260506001705 | 77 | 91 | 7.0 | 12.0 | 0.00 | 0.00 | 0.00 | 91 | 1015.2 |
| 20260506001204 | 77 | 102 | 5.0 | 8.0 | 0.00 | 0.00 | 0.00 | 90 | 1014.4 |
| 20260506000704 | 77 | 90 | 6.0 | 8.0 | 0.00 | 0.00 | 0.00 | 90 | 1014.2 |
| 20260505234704 | 77 | 76 | 6.0 | 9.0 | 0.00 | 0.00 | 0.00 | 87 | 1014.2 |
| 20260505234204 | 77 | 95 | 6.0 | 8.0 | 0.00 | 0.00 | 0.00 | 88 | 1014.2 |
| 20260505233704 | 78 | 80 | 7.0 | 9.0 | 0.00 | 0.00 | 0.00 | 87 | 1014.2 |
| 20260505233203 | 78 | 100 | 8.0 | 12.0 | 0.00 | 0.00 | 0.00 | 86 | 1014.2 |
| 20260505231704 | 78 | 92 | 7.0 | 10.0 | 0.00 | 0.00 | 0.00 | 86 | 1015.2 |
| 20260505231204 | 78 | 92 | 8.0 | 12.0 | 0.00 | 0.00 | 0.00 | 86 | 1015.2 |
| 20260505230704 | 78 | 85 | 7.0 | 10.0 | 0.00 | 0.00 | 0.00 | 86 | 1015.2 |
| 20260505224704 | 79 | 74 | 7.0 | 12.0 | 0.00 | 0.00 | 0.00 | 83 | 1014.2 |
| 20260505224203 | 79 | 67 | 9.0 | 13.0 | 0.00 | 0.00 | 0.00 | 84 | 1014.2 |
| 20260505223705 | 79 | 85 | 7.0 | 12.0 | 0.00 | 0.00 | 0.00 | 82 | 1014.2 |
| 20260505223203 | 80 | 82 | 8.0 | 12.0 | 0.00 | 0.00 | 0.00 | 81 | 1014.2 |
| 20260505221705 | 80 | 84 | 7.0 | 13.0 | 0.00 | 0.00 | 0.00 | 82 | 1014.2 |
| 20260505221204 | 80 | 83 | 9.0 | 13.0 | 0.00 | 0.00 | 0.00 | 83 | 1014.2 |
| 20260505220204 | 80 | 84 | 9.0 | 13.0 | 0.00 | 0.00 | 0.00 | 81 | 1014.2 |
| 20260505214704 | 81 | 67 | 10.0 | 13.0 | 0.00 | 0.00 | 0.00 | 80 | 1014.2 |
| 20260505213705 | 82 | 45 | 9.0 | 12.0 | 0.00 | 0.00 | 0.00 | 77 | 1014.2 |
| 20260505213203 | 82 | 63 | 9.0 | 13.0 | 0.00 | 0.00 | 0.00 | 77 | 1014.2 |
| 20260505211704 | 82 | 84 | 8.0 | 10.0 | 0.00 | 0.00 | 0.00 | 77 | 1014.2 |
| 20260505211204 | 82 | 107 | 8.0 | 10.0 | 0.00 | 0.00 | 0.00 | 77 | 1014.2 |
| 20260505210703 | 82 | 82 | 9.0 | 10.0 | 0.00 | 0.00 | 0.00 | 77 | 1014.2 |
| 20260505210204 | 81 | 80 | 8.0 | 13.0 | 0.00 | 0.00 | 0.00 | 80 | 1014.2 |
| 20260505204703 | 82 | 60 | 8.0 | 12.0 | 0.00 | 0.00 | 0.00 | 78 | 1014.2 |
| 20260505204203 | 82 | 88 | 7.0 | 12.0 | 0.00 | 0.00 | 0.00 | 78 | 1014.2 |
| 20260505203703 | 82 | 93 | 9.0 | 13.0 | 0.00 | 0.00 | 0.00 | 77 | 1014.2 |
| 20260505203204 | 83 | 74 | 8.0 | 12.0 | 0.00 | 0.00 | 0.00 | 77 | 1014.2 |
| 20260505201704 | 81 | 76 | 9.0 | 12.0 | 0.00 | 0.00 | 0.00 | 77 | 1014.2 |
| 20260505201204 | 81 | 76 | 8.0 | 12.0 | 0.00 | 0.00 | 0.00 | 79 | 1014.2 |
| 20260505200704 | 82 | 77 | 8.0 | 13.0 | 0.00 | 0.00 | 0.00 | 79 | 1014.2 |
| 20260505200204 | 82 | 93 | 7.0 | 13.0 | 0.00 | 0.00 | 0.00 | 79 | 1014.2 |
| 20260505194704 | 82 | 90 | 9.0 | 13.0 | 0.00 | 0.00 | 0.00 | 77 | 1014.2 |
| 20260505194204 | 82 | 68 | 9.0 | 13.0 | 0.00 | 0.00 | 0.00 | 76 | 1014.5 |
| 20260505193204 | 83 | 94 | 9.0 | 13.0 | 0.00 | 0.00 | 0.00 | 74 | 1015.2 |
| 20260505191704 | 83 | 94 | 9.0 | 13.0 | 0.00 | 0.00 | 0.00 | 76 | 1015.2 |
| 20260505191204 | 83 | 73 | 10.0 | 15.0 | 0.00 | 0.00 | 0.00 | 73 | 1015.2 |
| 20260505190705 | 85 | 67 | 8.0 | 12.0 | 0.00 | 0.00 | 0.00 | 74 | 1015.2 |
| 20260505190204 | 84 | 95 | 10.0 | 13.0 | 0.00 | 0.00 | 0.00 | 72 | 1015.2 |
| 20260505184704 | 83 | 91 | 9.0 | 13.0 | 0.00 | 0.00 | 0.00 | 73 | 1015.2 |
| 20260505184203 | 83 | 104 | 10.0 | 13.0 | 0.00 | 0.00 | 0.00 | 73 | 1015.2 |
| 20260505183703 | 84 | 70 | 9.0 | 14.0 | 0.00 | 0.00 | 0.00 | 72 | 1015.2 |
| 20260505183204 | 83 | 87 | 8.0 | 13.0 | 0.00 | 0.00 | 0.00 | 73 | 1015.2 |
| 20260505180705 | 82 | 89 | 9.0 | 12.0 | 0.00 | 0.00 | 0.00 | 76 | 1015.2 |
| 20260505180204 | 82 | 90 | 7.0 | 12.0 | 0.00 | 0.00 | 0.00 | 78 | 1015.2 |
| 20260505174204 | 81 | 93 | 9.0 | 14.0 | 0.00 | 0.00 | 0.00 | 79 | 1015.6 |
| 20260505173204 | 81 | 91 | 12.0 | 15.0 | 0.00 | 0.00 | 0.00 | 79 | 1015.2 |
| 20260505171705 | 83 | 89 | 10.0 | 13.0 | 0.00 | 0.00 | 0.00 | 73 | 1015.2 |
| 20260505171203 | 84 | 112 | 9.0 | 12.0 | 0.00 | 0.00 | 0.00 | 75 | 1015.2 |
| 20260505170704 | 84 | 100 | 9.0 | 14.0 | 0.00 | 0.00 | 0.00 | 72 | 1015.2 |
| 20260505170203 | 84 | 82 | 9.0 | 13.0 | 0.00 | 0.00 | 0.00 | 74 | 1015.2 |
| 20260505164704 | 83 | 78 | 9.0 | 12.0 | 0.00 | 0.00 | 0.00 | 74 | 1016.2 |
| 20260505164204 | 83 | 90 | 10.0 | 15.0 | 0.00 | 0.00 | 0.00 | 75 | 1016.2 |
| 20260505163705 | 83 | 69 | 10.0 | 13.0 | 0.00 | 0.00 | 0.00 | 75 | 1016.2 |
| 20260505163203 | 83 | 66 | 11.0 | 15.0 | 0.00 | 0.00 | 0.00 | 73 | 1016.2 |
| 20260505161705 | 84 | 97 | 9.0 | 13.0 | 0.00 | 0.00 | 0.00 | 74 | 1016.2 |
| 20260505161203 | 83 | 111 | 8.0 | 13.0 | 0.00 | 0.00 | 0.00 | 76 | 1016.2 |
| 20260505160703 | 82 | 70 | 9.0 | 13.0 | 0.00 | 0.00 | 0.00 | 75 | 1016.2 |
| 20260505160204 | 83 | 88 | 7.0 | 13.0 | 0.00 | 0.00 | 0.00 | 74 | 1016.2 |
| 20260505151705 | 83 | 63 | 9.0 | 13.0 | 0.00 | 0.04 | 0.00 | 72 | 1016.2 |
| 20260505151203 | 84 | 71 | 8.0 | 12.0 | 0.00 | 0.04 | 0.00 | 72 | 1015.7 |